�N����,����,�~����,�C��,���x,�C��,����,���ϕ���,�ő�u�ԕ���,�ő厞����,���˗�,�I�_���x,�n�����x,�ő啗���N��,DTYPE
"16/09/06","00:10",0.0,24.5,94.2,1005.7,281.7,0.2,0.5,312.1,0.00,23.5,26.1,"00:07:36",1
"16/09/06","00:20",0.2,24.6,94.3,1005.0,14.9,0.3,0.9,352.1,0.00,23.7,26.0,"00:12:48",1
"16/09/06","00:30",0.0,24.6,94.3,1004.8,312.4,0.7,1.0,220.2,0.00,23.7,26.0,"00:22:24",1
"16/09/06","00:40",0.0,24.6,94.4,1005.2,8.4,0.5,1.2,344.7,0.00,23.7,25.9,"00:39:20",1
"16/09/06","00:50",0.0,24.6,94.4,1005.0,283.8,0.5,1.0,233.6,0.00,23.7,25.8,"00:45:28",1
"16/09/06","01:00",0.0,24.5,94.4,1004.8,351.5,0.6,1.4,5.6,0.00,23.6,25.9,"00:52:16",1
"16/09/06","01:10",0.0,24.4,94.5,1005.0,269.2,0.3,0.6,242.7,0.00,23.5,26.0,"01:09:12",1
"16/09/06","01:20",0.0,24.3,94.5,1004.8,290.3,0.3,0.6,312.9,0.00,23.4,25.8,"01:10:48",1
"16/09/06","01:30",0.0,24.3,94.6,1004.5,314.6,0.3,0.8,344.9,0.00,23.4,25.7,"01:22:40",1
"16/09/06","01:40",0.0,24.2,94.5,1004.8,308.4,0.5,1.2,2.9,0.00,23.3,25.8,"01:31:36",1
"16/09/06","01:50",0.0,24.0,94.6,1004.8,321.8,0.3,0.9,349.9,0.00,23.1,25.7,"01:48:24",1
"16/09/06","02:00",0.0,24.0,94.6,1004.5,300.9,0.6,1.2,349.5,0.00,23.1,25.9,"01:52:40",1
"16/09/06","02:10",0.0,23.9,94.6,1004.5,281.0,0.2,0.5,274.0,0.00,23.0,25.7,"02:00:40",1
"16/09/06","02:20",0.0,23.8,94.7,1004.5,288.0,0.5,1.3,343.2,0.00,22.9,25.7,"02:18:16",1
"16/09/06","02:30",0.0,23.9,94.9,1005.0,317.2,0.7,1.6,236.2,0.00,23.1,25.5,"02:21:44",1
"16/09/06","02:40",0.0,23.9,94.8,1004.5,5.3,0.5,1.2,348.8,0.00,23.1,25.5,"02:31:28",1
"16/09/06","02:50",0.0,23.8,94.9,1004.8,281.7,0.5,0.9,238.4,0.00,23.0,25.7,"02:42:16",1
"16/09/06","03:00",0.0,23.8,94.9,1004.8,318.4,0.3,0.8,326.6,0.00,23.0,25.4,"02:52:40",1
"16/09/06","03:10",0.0,23.7,95.0,1004.8,295.5,0.3,0.6,332.3,0.00,22.9,25.5,"03:05:20",1
"16/09/06","03:20",0.0,23.6,94.9,1004.5,270.2,0.2,0.5,241.9,0.00,22.8,25.4,"03:10:08",1
"16/09/06","03:30",0.0,23.5,95.0,1005.0,318.4,0.5,0.9,316.8,0.00,22.7,25.4,"03:21:36",1
"16/09/06","03:40",0.0,23.5,95.2,1004.8,317.5,0.5,0.8,354.8,0.00,22.7,25.1,"03:39:36",1
"16/09/06","03:50",0.0,23.5,95.2,1004.8,323.4,0.6,1.2,346.1,0.00,22.7,25.4,"03:42:16",1
"16/09/06","04:00",0.0,23.5,95.3,1005.0,294.8,0.3,0.6,308.0,0.00,22.7,25.4,"03:54:48",1
"16/09/06","04:10",0.0,23.5,95.2,1004.8,258.0,0.6,1.4,238.8,0.00,22.7,25.5,"04:06:40",1
"16/09/06","04:20",0.0,23.5,95.2,1004.3,263.5,0.2,0.8,242.1,0.00,22.7,25.4,"04:16:48",1
"16/09/06","04:30",0.2,23.5,95.2,1005.0,284.5,0.3,0.8,334.3,0.00,22.7,25.4,"04:28:24",1
"16/09/06","04:40",0.0,23.6,95.3,1004.5,350.6,0.6,1.0,349.9,0.00,22.8,25.3,"04:36:32",1
"16/09/06","04:50",0.0,23.7,95.2,1004.8,323.1,0.6,1.6,344.3,0.00,22.9,25.5,"04:41:28",1
"16/09/06","05:00",0.0,23.8,95.2,1005.0,293.5,0.1,0.4,246.5,0.00,23.0,25.4,"04:55:28",1
"16/09/06","05:10",0.0,23.8,95.1,1004.8,240.2,0.5,1.1,236.2,0.00,23.0,25.3,"05:09:36",1
"16/09/06","05:20",0.0,23.8,95.1,1005.0,321.8,0.6,1.1,340.8,0.00,23.0,25.1,"05:17:04",1
"16/09/06","05:30",0.0,23.8,95.0,1005.0,347.2,0.6,0.9,12.0,0.00,23.0,25.4,"05:21:44",1
"16/09/06","05:40",0.0,23.8,95.1,1005.0,316.9,0.3,0.9,334.7,0.00,23.0,25.4,"05:37:28",1
"16/09/06","05:50",0.0,23.8,95.0,1004.8,319.3,0.1,0.5,306.2,0.00,23.0,25.3,"05:41:12",1
"16/09/06","06:00",0.0,23.8,95.0,1005.0,275.0,0.5,1.0,236.2,0.00,23.0,25.2,"05:55:20",1
"16/09/06","06:10",0.0,23.8,95.1,1005.0,331.0,0.5,1.0,346.2,0.00,23.0,25.3,"06:06:56",1
"16/09/06","06:20",0.0,23.8,95.0,1005.2,342.1,0.5,1.1,346.5,0.00,23.0,25.2,"06:10:08",1
"16/09/06","06:30",0.0,23.8,95.0,1005.0,299.7,0.3,0.6,306.4,0.00,23.0,25.3,"06:26:56",1
"16/09/06","06:40",0.0,23.9,94.9,1005.2,261.6,0.3,1.0,240.1,0.00,23.1,25.4,"06:36:56",1
"16/09/06","06:50",0.0,24.1,94.7,1005.7,311.5,0.3,0.9,324.6,0.00,23.2,25.2,"06:48:48",1
"16/09/06","07:00",0.0,24.2,94.5,1005.7,283.7,0.5,0.8,303.8,0.01,23.3,25.4,"06:50:40",1
"16/09/06","07:10",0.0,24.3,94.0,1005.5,287.4,0.3,0.6,277.8,0.02,23.3,25.2,"07:03:36",1
"16/09/06","07:20",0.0,24.6,93.5,1004.8,275.9,0.3,0.8,243.8,0.02,23.5,25.5,"07:13:04",1
"16/09/06","07:30",0.0,24.8,93.0,1005.7,287.1,0.3,0.9,246.8,0.03,23.6,25.2,"07:20:24",1
"16/09/06","07:40",0.0,25.1,92.5,1005.2,303.8,0.2,0.6,347.1,0.05,23.8,25.4,"07:36:32",1
"16/09/06","07:50",0.0,25.7,89.5,1005.2,342.4,0.3,1.0,350.3,0.09,23.9,25.5,"07:40:32",1
"16/09/06","08:00",0.0,27.0,82.9,1005.2,166.8,0.6,1.3,139.4,0.21,23.9,25.4,"07:59:36",1
"16/09/06","08:10",0.0,27.2,82.9,1005.0,144.0,0.3,1.0,123.7,0.17,24.1,25.9,"08:06:24",1
"16/09/06","08:20",0.0,26.6,84.9,1005.2,359.9,1.0,1.9,353.2,0.11,23.9,25.7,"08:14:48",1
"16/09/06","08:30",0.0,26.6,83.7,1004.8,320.7,0.2,1.2,338.0,0.10,23.7,25.7,"08:26:08",1
"16/09/06","08:40",0.0,27.7,81.7,1004.8,213.4,0.1,0.6,217.8,0.20,24.3,26.0,"08:34:16",1
"16/09/06","08:50",0.0,28.4,77.8,1004.5,331.3,0.3,1.1,351.8,0.30,24.2,26.2,"08:42:40",1
"16/09/06","09:00",0.0,28.8,75.2,1004.1,60.6,0.5,1.7,32.7,0.33,24.0,26.2,"08:50:24",1
"16/09/06","09:10",0.0,29.2,76.3,1004.5,158.9,0.5,1.1,132.7,0.35,24.6,26.5,"09:08:16",1
"16/09/06","09:20",0.0,29.5,71.9,1005.0,81.9,0.6,1.8,35.0,0.36,23.9,26.7,"09:18:56",1
"16/09/06","09:30",0.0,29.9,70.3,1005.2,40.1,0.8,1.9,11.9,0.40,23.9,26.7,"09:21:20",1
"16/09/06","09:40",0.0,30.3,68.9,1005.2,65.6,0.6,1.8,70.0,0.40,24.0,27.0,"09:38:16",1
"16/09/06","09:50",0.0,30.5,67.2,1005.5,94.5,1.0,2.8,192.1,0.45,23.8,27.3,"09:49:20",1
"16/09/06","10:00",0.0,30.5,67.5,1005.5,144.9,1.3,2.7,211.2,0.46,23.8,27.3,"09:52:56",1
"16/09/06","10:10",0.0,31.2,64.6,1005.7,16.7,0.7,1.9,352.6,0.49,23.8,27.4,"10:03:52",1
"16/09/06","10:20",0.0,31.1,67.3,1006.2,183.9,1.2,3.7,190.9,0.51,24.4,27.8,"10:10:02",1
"16/09/06","10:30",0.0,30.9,69.1,1005.7,170.5,1.6,3.6,215.9,0.49,24.6,27.7,"10:27:20",1
"16/09/06","10:40",0.0,31.9,65.4,1006.0,141.7,0.8,2.6,203.7,0.49,24.6,28.2,"10:37:20",1
"16/09/06","10:50",0.0,32.1,63.0,1005.2,143.6,1.2,4.0,170.8,0.55,24.2,28.3,"10:49:12",1
"16/09/06","11:00",0.0,31.4,60.7,1005.5,116.1,1.2,3.1,130.9,0.39,22.9,28.7,"10:51:28",1
"16/09/06","11:10",0.0,31.4,61.5,1005.2,307.2,0.8,2.4,197.8,0.31,23.1,28.8,"11:09:04",1
"16/09/06","11:20",0.0,30.9,64.7,1004.5,167.7,1.2,2.4,225.0,0.21,23.5,28.8,"11:10:16",1
"16/09/06","11:30",0.0,31.0,62.5,1004.3,155.7,1.3,2.8,123.5,0.24,23.0,28.8,"11:24:32",1
"16/09/06","11:40",0.0,32.2,60.6,1004.1,168.3,1.0,2.6,192.3,0.43,23.7,28.9,"11:30:08",1
"16/09/06","11:50",0.0,32.0,61.7,1004.3,176.6,0.6,1.7,170.1,0.32,23.8,29.0,"11:46:08",1
"16/09/06","12:00",0.0,32.5,57.9,1004.3,193.5,1.8,3.3,191.1,0.58,23.2,29.0,"11:52:08",1
"16/09/06","12:10",0.0,31.7,60.5,1004.5,142.9,0.8,2.0,193.9,0.27,23.2,29.4,"12:03:28",1
"16/09/06","12:20",0.0,32.6,58.6,1003.8,71.4,0.8,1.9,23.3,0.39,23.5,29.5,"12:16:32",1
"16/09/06","12:30",0.0,33.1,55.5,1004.1,57.0,1.0,2.0,13.5,0.48,23.0,29.6,"12:29:52",1
"16/09/06","12:40",0.0,32.6,58.8,1003.1,19.0,1.0,2.5,10.6,0.28,23.5,29.6,"12:30:56",1
"16/09/06","12:50",0.0,33.1,56.0,1002.9,105.6,0.8,1.9,7.4,0.43,23.2,29.8,"12:48:24",1
"16/09/06","13:00",0.0,34.7,55.2,1002.9,101.2,0.6,1.7,87.3,0.60,24.4,29.9,"12:51:28",1
"16/09/06","13:10",0.0,32.5,54.2,1003.4,84.6,0.7,2.7,353.1,0.21,22.1,30.0,"13:08:20",1
"16/09/06","13:20",0.0,32.2,55.5,1002.6,199.1,1.0,2.5,222.1,0.21,22.2,29.9,"13:14:56",1
"16/09/06","13:30",0.0,34.0,53.5,1002.9,136.1,0.7,1.7,111.6,0.53,23.3,30.1,"13:27:36",1
"16/09/06","13:40",0.0,33.1,59.6,1002.9,127.8,0.8,1.8,112.5,0.28,24.2,30.2,"13:33:04",1
"16/09/06","13:50",0.0,32.8,54.3,1002.6,66.0,0.6,1.6,17.6,0.16,22.4,29.9,"13:45:44",1
"16/09/06","14:00",0.0,32.4,56.5,1002.6,141.8,0.6,1.7,118.8,0.11,22.7,30.3,"13:50:02",1
"16/09/06","14:10",0.0,32.4,56.8,1002.2,52.9,0.3,1.1,13.5,0.08,22.8,29.9,"14:02:40",1
"16/09/06","14:20",0.0,32.1,57.4,1001.9,118.5,0.8,2.4,115.0,0.09,22.7,30.0,"14:10:08",1
"16/09/06","14:30",0.0,32.9,56.9,1001.5,136.5,0.7,1.9,156.0,0.21,23.3,29.7,"14:21:04",1
"16/09/06","14:40",0.0,34.2,53.1,1001.9,115.6,1.0,2.4,159.8,0.40,23.3,30.1,"14:37:20",1
"16/09/06","14:50",0.0,33.2,55.1,1001.9,107.7,1.0,2.7,112.6,0.26,23.0,30.0,"14:40:02",1
"16/09/06","15:00",0.0,33.9,53.6,1001.9,129.3,1.1,2.5,127.0,0.34,23.2,30.2,"14:55:44",1
"16/09/06","15:10",0.0,34.2,51.5,1002.4,96.4,1.1,2.7,44.9,0.39,22.8,30.2,"15:09:04",1
"16/09/06","15:20",0.0,32.9,54.2,1001.9,95.7,1.0,3.1,137.7,0.15,22.5,30.0,"15:19:44",1
"16/09/06","15:30",0.0,31.8,58.5,1001.9,121.9,1.3,2.8,107.8,0.09,22.7,29.9,"15:23:44",1
"16/09/06","15:40",0.0,32.6,56.9,1001.7,115.4,1.1,2.5,94.2,0.22,23.0,30.2,"15:31:12",1
"16/09/06","15:50",0.0,32.4,58.4,1001.7,136.4,1.2,3.9,145.5,0.15,23.2,29.9,"15:48:08",1
"16/09/06","16:00",0.0,31.9,59.3,1001.7,112.6,1.0,2.4,122.3,0.06,23.0,29.9,"15:52:08",1
"16/09/06","16:10",0.0,31.6,60.6,1001.2,98.4,1.2,2.5,138.8,0.04,23.1,29.9,"16:01:44",1
"16/09/06","16:20",0.0,31.0,64.6,1001.2,117.7,1.5,3.4,120.5,0.03,23.6,29.5,"16:15:04",1
"16/09/06","16:30",0.2,30.1,70.0,1000.8,113.9,1.2,3.3,132.0,0.04,24.1,29.7,"16:24:56",1
"16/09/06","16:40",0.2,29.1,75.4,1000.3,156.2,1.3,2.9,132.3,0.04,24.3,29.3,"16:30:24",1
"16/09/06","16:50",0.4,29.1,77.2,999.8,66.7,0.3,2.6,72.8,0.06,24.7,29.3,"16:48:56",1
"16/09/06","17:00",0.0,29.0,76.0,999.6,30.1,0.7,1.9,56.8,0.06,24.4,29.1,"16:59:44",1
"16/09/06","17:10",0.0,28.9,74.3,1000.5,79.4,1.0,2.6,69.4,0.04,23.9,29.0,"17:08:32",1
"16/09/06","17:20",0.2,28.7,73.3,1000.8,94.1,1.0,2.5,69.6,0.00,23.5,28.9,"17:12:40",1
"16/09/06","17:30",0.4,28.2,76.2,1001.0,176.8,1.0,2.5,205.8,0.00,23.6,29.0,"17:29:44",1
"16/09/06","17:40",0.2,27.2,78.8,1001.2,186.3,2.6,5.7,209.4,0.00,23.2,28.7,"17:39:36",1
"16/09/06","17:50",0.2,26.3,82.8,1001.2,206.5,2.1,5.6,206.5,0.00,23.2,28.5,"17:40:16",1
"16/09/06","18:00",0.0,26.1,84.2,1000.8,306.7,0.3,1.3,221.5,0.00,23.3,28.3,"17:50:56",1
"16/09/06","18:10",0.0,25.6,84.0,1000.8,288.3,0.6,2.6,232.9,0.00,22.7,28.1,"18:01:36",1
"16/09/06","18:20",0.0,25.5,86.5,1000.5,321.2,0.5,1.2,336.5,0.00,23.1,28.2,"18:17:28",1
"16/09/06","18:30",0.0,25.2,87.7,1000.5,294.2,0.5,1.2,235.1,0.00,23.1,28.1,"18:27:52",1
"16/09/06","18:40",0.0,25.0,88.6,1000.3,341.9,0.2,1.0,343.6,0.00,23.0,28.1,"18:31:20",1
"16/09/06","18:50",0.0,24.8,89.2,1000.5,319.7,0.3,0.6,308.6,0.00,22.9,27.8,"18:45:12",1
"16/09/06","19:00",0.0,24.8,90.0,1000.3,278.8,0.3,0.8,309.8,0.00,23.1,27.9,"18:50:40",1
"16/09/06","19:10",0.0,24.7,90.4,1000.3,290.4,0.3,0.6,324.2,0.00,23.1,27.7,"19:08:32",1
"16/09/06","19:20",0.0,24.6,90.7,1000.5,332.3,0.6,1.6,352.3,0.00,23.0,27.7,"19:16:08",1
"16/09/06","19:30",0.0,24.5,91.0,1000.0,295.3,0.2,1.2,337.9,0.00,23.0,27.7,"19:27:44",1
"16/09/06","19:40",0.0,24.3,91.2,1001.2,294.3,0.2,0.9,314.5,0.00,22.8,27.5,"19:32:16",1
"16/09/06","19:50",0.0,24.2,91.4,1001.5,291.9,0.3,1.0,16.1,0.00,22.7,27.3,"19:43:12",1
"16/09/06","20:00",0.0,24.1,91.6,1001.5,306.3,0.6,1.0,233.6,0.00,22.7,27.1,"19:59:44",1
"16/09/06","20:10",0.0,24.3,91.8,1001.5,247.4,0.7,2.1,232.1,0.00,22.9,27.3,"20:03:52",1
"16/09/06","20:20",0.0,24.3,91.8,1001.7,327.1,0.6,1.3,354.3,0.00,22.9,27.2,"20:17:52",1
"16/09/06","20:30",0.0,24.2,92.0,1001.7,341.4,0.5,1.4,346.0,0.00,22.9,27.1,"20:28:24",1
"16/09/06","20:40",0.0,24.0,92.1,1001.9,292.8,0.3,0.5,305.5,0.00,22.7,26.9,"20:30:24",1
"16/09/06","20:50",0.0,23.9,92.4,1001.9,291.5,0.3,0.6,322.1,0.00,22.6,27.0,"20:43:20",1
"16/09/06","21:00",0.0,23.8,92.7,1001.5,296.5,0.3,0.8,329.3,0.00,22.6,26.9,"20:54:40",1
"16/09/06","21:10",0.0,23.8,93.0,1001.9,288.4,0.3,0.9,338.0,0.00,22.6,26.9,"21:08:56",1
"16/09/06","21:20",0.0,23.8,93.1,1001.7,310.0,0.3,0.8,330.7,0.00,22.7,26.7,"21:11:20",1
"16/09/06","21:30",0.0,23.7,93.2,1001.9,290.1,0.3,0.5,260.1,0.00,22.6,26.6,"21:20:32",1
"16/09/06","21:40",0.0,23.6,93.4,1001.5,289.5,0.2,0.5,266.5,0.00,22.5,26.6,"21:30:08",1
"16/09/06","21:50",0.0,23.6,93.6,1001.5,297.1,0.5,0.8,330.6,0.00,22.5,26.6,"21:42:56",1
"16/09/06","22:00",0.0,23.6,93.8,1001.9,267.3,0.3,1.0,233.3,0.00,22.6,26.3,"21:59:36",1
"16/09/06","22:10",0.0,23.6,93.7,1001.5,263.7,0.3,0.8,245.1,0.00,22.6,26.6,"22:03:52",1
"16/09/06","22:20",0.0,23.6,93.7,1001.5,297.0,0.3,0.8,330.3,0.00,22.6,26.4,"22:12:56",1
"16/09/06","22:30",0.0,23.6,93.8,1001.0,293.6,0.2,0.5,280.8,0.00,22.6,26.5,"22:21:28",1
"16/09/06","22:40",0.0,23.6,93.8,1001.0,288.2,0.1,0.8,343.9,0.00,22.6,26.3,"22:35:28",1
"16/09/06","22:50",0.0,23.6,93.8,1001.0,279.7,0.2,0.8,306.1,0.00,22.6,26.3,"22:40:16",1
"16/09/06","23:00",0.0,23.6,93.8,1000.5,269.3,0.2,0.8,235.2,0.00,22.6,26.3,"22:51:28",1
"16/09/06","23:10",0.0,23.6,93.7,1001.0,281.7,0.2,0.8,346.4,0.00,22.6,26.3,"23:06:56",1
"16/09/06","23:20",0.0,23.6,93.5,1000.8,293.9,0.2,1.2,359.9,0.00,22.5,26.3,"23:15:04",1
"16/09/06","23:30",0.0,23.6,93.4,1001.0,323.5,0.7,1.8,355.6,0.00,22.5,26.3,"23:21:28",1
"16/09/06","23:40",0.0,23.6,93.2,1000.5,334.3,0.8,1.7,359.3,0.00,22.5,26.3,"23:35:12",1
"16/09/06","23:50",0.0,23.5,92.9,1000.3,325.6,0.7,1.4,352.1,0.00,22.3,26.1,"23:49:44",1
"16/09/06","24:00",0.0,23.4,92.9,1000.5,340.8,1.0,1.7,338.5,0.00,22.2,26.0,"23:54:08",1
